User: anonymous   Login
Location: Fort Wayne
(41.1310°N, 85.1290°W)
Time: 00:54:31
(UTC-05:00)
Language:

Tiros 1 despin weight - Orbit

View from above orbital plane
View from above orbital plane
View from above satellite
View from above satellite

Ground track
Ground track

The orbit data is extracted from the following two-line orbital elements,

1 00115U 60002D   17016.80497306 -.00000046  00000-0  21841-4 0  9998
2 00115  48.1659 151.2421 0034954 153.2889 206.9833 14.82987085 27753
Epoch (UTC): 16 January 2017 19:19:09
Eccentricity: 0.0034954
inclination: 48.1659°
perigee height: 595 km
apogee height: 644 km
right ascension of ascending node: 151.2421°
argument of perigee: 153.2889°
revolutions per day: 14.82987085
mean anomaly at epoch: 206.9833°
orbit number at epoch: 2775

The dashed part of the orbit path shows where the satellite is in the earth's shadow,  

DLR